パンスターズ彗星

C/2021 O3 ( PanSTARRS )

English version
Home page
Updated on May 10, 2022

---------------------------------------------------------------------

・ プロフィール

発見日 2021年7月26日
発見光度 19.8等
発見者 Pan-STARRS 1 telescope (Haleakala)

・ 写真集

・ 軌道要素

Epoch 2022 Apr. 11.0 TT = JDT 2459680.5
T 2022 Apr. 21.04749 TT                                 Rudenko
q   0.2873218            (2000.0)            P               Q
z  -0.0003669      Peri.  299.99106     -0.56805253     -0.81247150
 +/-0.0000025      Node   189.01994     +0.64618200     -0.53901744
e   1.0001054      Incl.   56.79113     -0.50967161     +0.22214918
From 713 observations 2021 July 26-2022 Feb. 1, mean residual 0".5.

・ 星図

・ 光度変化

        m1 = 10.0 + 5 logΔ + 10.0 log r          [   ,-10]  (              〜2022年 4月11日)
        m1 = 11.0 + 5 logΔ + 10.0 log r(t + 15)  [-10,  4]  (2022年 4月11日〜2022年 4月25日)
        m1 = 15.0 + 5 logΔ + 12.0 log r          [  4,   ]  (2022年 4月25日〜              )

        ※ 灰色の曲線は、m1 = 10.0 + 5 logΔ + 10.0 log r の光度曲線です。

---------------------------------------------------------------------

軌道要素はM.P.E.C. 2022-C234に掲載されたものです。
星図はステラナビゲータ Ver.10 (アストロアーツ) で作成したものです。
光度グラフはComet for Windowsで作成したものです。

---------------------------------------------------------------------

Copyright(C) Seiichi Yoshida (comet@aerith.net). All rights reserved.